Location: Unnamed Road
(35.9029°N, 51.9749°E)
Time: 13:23:39
(UTC+04:30)

Explorer 7 - Visible Passes

Search period start: 30 May 2020 00:00
Search period end: 09 June 2020 00:00
Orbit: 485 x 679 km, 50.3° (Epoch: 29 May)

Date Brightness Start Highest point End Pass type
(mag) Time Alt. Az. Time Alt. Az. Time Alt. Az.
30 May 9.3 01:17:22 21° NW 01:18:23 22° NNW 01:21:55 10° NNE visible
30 May 10.0 02:58:27 10° NNW 03:00:17 12° N 03:02:05 10° NNE visible
30 May 9.7 04:39:21 10° NNW 04:42:17 18° NNE 04:45:07 10° ENE visible
30 May 8.4 23:43:54 35° NNE 23:43:54 35° NNE 23:46:44 10° NE visible
31 May 9.7 01:20:19 10° WNW 01:23:29 18° NNW 01:26:34 10° NNE visible
31 May 10.0 03:03:38 10° NNW 03:05:32 12° N 03:07:23 10° NNE visible
31 May 9.4 04:43:55 10° NNW 04:47:24 23° NNE 04:50:42 10° ENE visible
31 May 7.9 22:01:54 10° SSW 22:07:40 33° E 22:10:53 10° ENE visible
31 May 8.5 23:42:34 10° W 23:47:04 38° NNW 23:51:25 10° NE visible
01 Jun 10.0 01:26:00 10° NW 01:28:39 15° NNW 01:31:15 10° NNE visible
01 Jun 10.0 03:08:31 10° NNW 03:10:46 14° N 03:12:58 10° NE visible
01 Jun 8.8 04:48:32 10° NW 04:52:26 32° NNE 04:56:06 10° E visible
01 Jun 7.1 22:06:20 10° SW 22:11:10 66° SE 22:15:52 10° NE visible
01 Jun 9.1 23:47:56 10° W 23:52:04 28° NNW 23:56:03 10° NNE visible
02 Jun 10.1 01:31:37 10° NW 01:33:52 13° N 01:36:05 10° NNE visible
02 Jun 9.9 03:13:12 10° NNW 03:15:58 16° NNE 03:18:38 10° NE visible
02 Jun 7.9 04:53:11 10° NW 04:57:23 50° NE 05:01:18 10° ESE visible
02 Jun 7.3 22:11:04 10° SW 22:15:57 78° NW 22:20:42 10° NE visible
02 Jun 9.6 23:53:28 10° WNW 23:57:08 21° NNW 00:00:41 10° NNE visible
03 Jun 10.2 01:37:01 10° NNW 01:39:07 13° N 01:41:10 10° NNE visible
03 Jun 9.6 03:17:49 10° NNW 03:21:07 20° NNE 03:24:16 10° ENE visible
03 Jun 6.9 04:57:55 10° NW 05:02:14 83° NE 05:06:15 10° SE visible
03 Jun 8.1 20:36:12 10° S 20:40:22 28° SE 20:44:29 10° ENE visible
03 Jun 8.1 22:16:04 10° WSW 22:20:49 51° NW 22:25:27 10° NE visible
03 Jun 9.9 23:59:06 10° WNW 00:02:16 17° NNW 00:05:21 10° NNE visible
04 Jun 10.2 01:42:08 10° NNW 01:44:22 13° N 01:46:33 10° NE visible
04 Jun 9.1 03:22:25 10° NNW 03:26:12 26° NNE 03:29:46 10° E visible
04 Jun 6.9 05:02:47 10° WNW 05:07:00 56° SW 05:10:56 10° SE visible
04 Jun 7.5 20:40:21 10° SSW 20:45:02 47° SE 20:49:39 10° ENE visible
04 Jun 8.8 22:21:17 10° W 22:25:46 35° NNW 22:30:07 10° NE visible
05 Jun 10.1 00:04:44 10° NW 00:07:27 15° N 00:10:06 10° NNE visible
05 Jun 10.1 01:46:57 10° NNW 01:49:36 15° N 01:52:08 10° NE visible
05 Jun 8.4 03:27:03 10° NW 03:31:13 38° NNE 03:35:07 10° E visible
05 Jun 7.5 05:07:52 10° WNW 05:11:40 31° SW 05:15:15 10° SSE visible
05 Jun 7.2 20:44:53 10° SW 20:49:46 77° SE 20:54:36 10° NE visible
05 Jun 9.4 22:26:41 10° W 22:30:46 26° NNW 22:34:45 10° NNE visible
06 Jun 10.2 00:10:17 10° NW 00:12:41 14° N 00:15:01 10° NNE visible
06 Jun 9.8 01:51:39 10° NNW 01:54:46 18° NNE 01:57:47 10° ENE visible
06 Jun 7.4 03:31:44 10° NW 03:36:08 59° NE 03:40:14 10° ESE visible
06 Jun 8.2 05:13:21 10° W 05:16:15 18° SW 05:19:03 10° S visible
06 Jun 7.7 20:49:42 10° WSW 20:54:34 69° NW 20:59:24 10° NE visible
06 Jun 9.8 22:32:14 10° WNW 22:35:52 20° NNW 22:39:24 10° NNE visible
07 Jun 10.2 00:15:35 10° NNW 00:17:55 13° N 00:20:13 10° NNE visible
07 Jun 9.4 01:56:18 10° NNW 01:59:55 22° NNE 02:03:22 10° ENE visible
07 Jun 6.7 03:36:31 10° NW 03:40:58 84° SW 03:45:06 10° SE visible
07 Jun 8.5 20:54:45 10° WSW 20:59:27 45° NNW 21:04:07 10° NE visible
07 Jun 10.1 22:37:52 10° NW 22:41:01 17° NNW 22:44:06 10° NNE visible
08 Jun 10.1 00:20:37 10° NNW 00:23:10 14° N 00:25:40 10° NE visible
08 Jun 8.8 02:00:55 10° NW 02:04:58 30° NNE 02:08:46 10° E visible
08 Jun 7.5 03:41:25 10° WNW 03:44:34 38° W 03:44:34 38° W visible
08 Jun 9.2 21:00:01 10° W 21:04:26 32° NNW 21:08:46 10° NE visible
08 Jun 10.1 22:43:29 10° NW 22:46:13 15° N 22:48:55 10° NNE visible
